TimeAST,TemperatureF,Dew PointF,Humidity,Sea Level PressureIn,VisibilityMPH,Wind Direction,Wind SpeedMPH,Gust SpeedMPH,PrecipitationIn,Events,Conditions,WindDirDegrees,DateUTC
12:00 AM,93.2,68.0,44,29.44,-9999.0,NNW,5.8,-,N/A,,Clear,340,2013-08-03 21:00:00
12:30 AM,93.2,64.4,38,29.44,-9999.0,NNW,6.9,-,N/A,,Clear,340,2013-08-03 21:30:00
1:00 AM,93.2,66.2,41,29.44,-9999.0,North,5.8,-,N/A,,Clear,360,2013-08-03 22:00:00
1:30 AM,93.2,68.0,44,29.44,-9999.0,North,6.9,-,N/A,,Clear,360,2013-08-03 22:30:00
2:00 AM,91.4,69.8,49,29.44,-9999.0,NNW,6.9,-,N/A,,Clear,340,2013-08-03 23:00:00
2:30 AM,91.4,66.2,43,29.44,-9999.0,NNW,4.6,-,N/A,,Clear,330,2013-08-03 23:30:00
3:00 AM,92,66,33,29.45,6,NW,5.8,,,,Scattered Clouds,320,2013-08-04 00:00:00
3:00 AM,91.4,66.2,43,29.44,-9999.0,NW,5.8,-,N/A,,Clear,320,2013-08-04 00:00:00
3:30 AM,91.4,68.0,46,29.44,-9999.0,Variable,2.3,-,N/A,,Clear,0,2013-08-04 00:30:00
4:00 AM,91.4,68.0,46,29.44,-9999.0,NW,5.8,-,N/A,,Clear,320,2013-08-04 01:00:00
4:30 AM,89.6,69.8,52,29.44,-9999.0,NNW,5.8,-,N/A,,Clear,340,2013-08-04 01:30:00
5:00 AM,87.8,71.6,58,29.44,-9999.0,NE,4.6,-,N/A,,Clear,50,2013-08-04 02:00:00
5:30 AM,87.8,71.6,58,29.44,-9999.0,NNW,4.6,-,N/A,,Clear,330,2013-08-04 02:30:00
6:00 AM,89.6,68.0,49,29.44,-9999.0,NNW,5.8,-,N/A,,Clear,340,2013-08-04 03:00:00
6:30 AM,91.4,69.8,49,29.44,-9999.0,NNW,5.8,-,N/A,,Clear,340,2013-08-04 03:30:00
7:00 AM,89.6,69.8,52,29.44,-9999.0,NNE,6.9,-,N/A,,Clear,30,2013-08-04 04:00:00
7:30 AM,89.6,71.6,55,29.47,-9999.0,North,5.8,-,N/A,,Clear,10,2013-08-04 04:30:00
8:00 AM,89.6,75.2,62,29.47,-9999.0,North,6.9,-,N/A,,Clear,10,2013-08-04 05:00:00
8:30 AM,91.4,78.8,66,29.47,-9999.0,NNW,5.8,-,N/A,,Clear,340,2013-08-04 05:30:00
9:00 AM,91,82,67,29.49,5,North,5.8,,,,Widespread Dust,0,2013-08-04 06:00:00
9:00 AM,91.4,82.4,75,29.47,5.0,North,5.8,-,N/A,,Unknown,360,2013-08-04 06:00:00
9:30 AM,91.4,82.4,75,29.47,5.0,North,6.9,-,N/A,,Unknown,360,2013-08-04 06:30:00
10:00 AM,93.2,82.4,71,29.47,4.3,NE,8.1,-,N/A,,Unknown,50,2013-08-04 07:00:00
10:30 AM,95.0,82.4,67,29.47,4.3,ENE,8.1,-,N/A,,Partly Cloudy,70,2013-08-04 07:30:00
11:00 AM,95.0,80.6,63,29.47,4.3,NE,6.9,-,N/A,,Unknown,40,2013-08-04 08:00:00
11:30 AM,100.4,69.8,37,29.44,-9999.0,North,8.1,-,N/A,,Clear,10,2013-08-04 08:30:00
12:00 PM,98.6,78.8,53,29.44,5.6,NNE,10.4,-,N/A,,Unknown,20,2013-08-04 09:00:00
12:30 PM,96.8,80.6,60,29.44,5.6,NNE,9.2,-,N/A,,Unknown,30,2013-08-04 09:30:00
1:00 PM,96.8,82.4,63,29.44,5.0,North,11.5,-,N/A,,Unknown,10,2013-08-04 10:00:00
1:30 PM,96.8,80.6,60,29.42,5.0,NNE,10.4,-,N/A,,Unknown,30,2013-08-04 10:30:00
2:00 PM,96.8,80.6,60,29.42,5.0,NNE,9.2,-,N/A,,Unknown,30,2013-08-04 11:00:00
2:30 PM,96.8,80.6,60,29.42,5.0,NE,11.5,-,N/A,,Unknown,40,2013-08-04 11:30:00
3:00 PM,97,79,48,29.44,5,NE,12.7,,,,Haze,40,2013-08-04 12:00:00
3:00 PM,96.8,78.8,56,29.44,5.0,NE,12.7,-,N/A,,Unknown,40,2013-08-04 12:00:00
3:30 PM,95.0,84.2,71,29.42,4.3,NE,16.1,-,N/A,,Unknown,50,2013-08-04 12:30:00
4:00 PM,95.0,82.4,67,29.42,4.3,NE,11.5,-,N/A,,Unknown,50,2013-08-04 13:00:00
4:30 PM,95.0,84.2,71,29.42,4.3,NE,12.7,-,N/A,,Unknown,50,2013-08-04 13:30:00
5:00 PM,93.2,86.0,79,29.42,3.7,ENE,12.7,-,N/A,,Partly Cloudy,60,2013-08-04 14:00:00
5:30 PM,93.2,86.0,79,29.44,3.7,ENE,12.7,-,N/A,,Scattered Clouds,70,2013-08-04 14:30:00
6:00 PM,93.2,86.0,79,29.44,3.7,ENE,11.5,-,N/A,,Scattered Clouds,60,2013-08-04 15:00:00
6:30 PM,93.2,84.2,75,29.44,4.3,ENE,10.4,-,N/A,,Unknown,70,2013-08-04 15:30:00
7:00 PM,93.2,84.2,75,29.44,4.3,ENE,9.2,-,N/A,,Unknown,60,2013-08-04 16:00:00
8:00 PM,91.4,82.4,75,29.47,4.3,ENE,5.8,-,N/A,,Partly Cloudy,60,2013-08-04 17:00:00
9:00 PM,92,80,60,29.50,5,NE,4.6,,,,Haze,50,2013-08-04 18:00:00
9:00 PM,91.4,80.6,71,29.47,5.0,NE,4.6,-,N/A,,Unknown,50,2013-08-04 18:00:00
9:30 PM,91.4,80.6,71,29.50,5.0,NE,5.8,-,N/A,,Unknown,40,2013-08-04 18:30:00
10:00 PM,91.4,82.4,75,29.50,4.3,NNE,4.6,-,N/A,,Unknown,30,2013-08-04 19:00:00
10:30 PM,91.4,82.4,75,29.47,4.3,NNE,4.6,-,N/A,,Unknown,30,2013-08-04 19:30:00
11:00 PM,91.4,82.4,75,29.47,4.3,NE,5.8,-,N/A,,Unknown,40,2013-08-04 20:00:00
11:30 PM,91.4,84.2,79,29.47,4.3,NNE,8.1,-,N/A,,Unknown,20,2013-08-04 20:30:00